CZ-2D R/B, 43486

Orbit data source: Space-Track

CZ-2D R/B, 43486 is space debris in SSO originally from a launch on Sat, 02 Jun 2018 UTC launched from the Jiuquan Satellite Launch Center, China (JSC). Debris objects in space refer to the collection of defunct objects orbiting the Earth. Examples of debris include non-operational satellites, rocket bodies, and fragments generated from explosions, collisions, or faulty payload assembly.

Loading next visibility...
Identifier
43486, 2018-048C
Orbit
SSO
Country
Flag of CNCN / PRC
Related business
Manufacturer
CALT
Mission
Spacecraft
Bus & Motor
Unknown
Mass
1 kg wet, 1 kg dry
Launch date (UTC)
2018-06-02 (8 years ago)
Launch vehicle
Unknown
Launch site
Jiuquan Satellite Launch Center, China (JSC)
Object type
Payload
Rocket body
Debris
Shape & HBR
Cone, 0.1 m
Radar Cross Section
0.025 m², Medium (>0.1 m² and < 1m²)

Expand to show TLE details & history
Last TLE update: 15 hours ago

TLE from 15 hours ago
0 CZ-2D R/B
1 43486U 18048C   26256.04254991  .00002418  00000-0  21996-3 0  9996
2 43486  97.5716 282.8617 0009683 217.8638 142.1903 14.96086639448296
Epoch: 2026-09-13T01:01Z
TLE epoch observation values (Epoch: 2026-09-13T01:01:16.312Z)
Latitude
-0.00006°
Longitude
-84.49914°
Altitude
587.381 km
Speed
7.564 km/s
True Right ascension
18h 51m 26s
True Declination
0° 00' 00"
Sunlit
Object was in daylight at epoch
Visualization orbit readout
Latitude
Unknown
Longitude
Unknown
Altitude
Unknown
Speed
Unknown
Apparent Right ascension
Unknown
Apparent Declination
Unknown
Sunlit
N/A
Visualization observer readout
Local Sidereal Time
08:49:02
Azimuth
Unknown
Elevation
Unknown
Doppler factor
Unknown
Orbital elements
Apogee altitude
582.741 km
Perigee altitude
569.273 km
Semi-major axis
6,954.144 km
Eccentricity
0.00097
Inclination
97.5716°
RAAN
282.8617°
Arg. of periapsis
217.8638°
True anomaly
142.25826°
Mean anomaly
142.1903°
Eccentric anomaly
142.22429°
Mean motion
3.74264 °/min
Orbital period
96.19 mins
BSTAR
0.00021996
Loading maneuver chart data...
Computing Atmospheric mass density...
Loading historical data...
Loading historical data...
Loading historical data...
Loading historical data...
Loading historical data...
Loading historical data...
Loading historical data...
Other satellites on launch #48 in the year 2018 (2018-06-02 UTC)

Documentation

Showing up to 5 results
|